Oakland, CA

1:11 AM PST on December 09, 2019 (GMT -0800)
Metro Oakland International

Weather History for KOAK - October, 2019

Change the Weather History Date:

Tuesday, October 29, 2019

  Actual Average Record
Temperature  
Mean Temperature 58 °F 58 °F  
Max Temperature 73 °F 67 °F 81 °F (1955)
Min Temperature 43 °F 49 °F 43 °F (1971)
Degree Days  
Heating Degree Days 7 7  
Month to date heating degree days 111 137  
Since 1 July heating degree days 141 337  
Cooling Degree Days 0 0  
Month to date cooling degree days 31 12  
Year to date cooling degree days 395 137  
Growing Degree Days 8 (Base 50)    
Moisture  
Dew Point 25 °F    
Average Humidity 37    
Maximum Humidity 60    
Minimum Humidity 13    
Precipitation  
Precipitation 0.00 in 0.08 in 1.11 in (1975)
Month to date precipitation T 1.06  
Year to date precipitation 15.94 14.56  
Sea Level Pressure  
Sea Level Pressure 29.96 in    
Wind  
Wind Speed 7 mph (ENE)    
Max Wind Speed 25 mph    
Max Gust Speed 32 mph    
Visibility 10 miles    
Events      
T = Trace of Precipitation, MM = Missing Value Source: NWS Daily Summary

Daily Weather History Graph

Daily Weather History Graph

Search for Another Location

Airport or City:

Astronomy

Oct. 29, 2019 Rise Set
Actual Time 7:30 AM PDT 6:13 PM PDT
Civil Twilight 7:03 AM PDT 6:40 PM PDT
Nautical Twilight 6:33 AM PDT 7:11 PM PDT
Astronomical Twilight 6:02 AM PDT 7:42 PM PDT
Moon 9:09 AM PDT (10/29) 7:43 PM PDT (10/29)
Length of Visible Light 11h 36m
Length of Day
10h 42m
Waxing Crescent, 4% of the Moon is Illuminated
Oct 29
Waxing Crescent
Nov 4
First Quarter
Nov 12
Full
Nov 19
Last Quarter
Nov 26
New

Hourly Weather History & Observations

Time (PDT) Temp. Windchill Dew Point Humidity Pressure Visibility Wind Dir Wind Speed Gust Speed Precip Events Conditions
12:53 AM 50.0 °F - 28.4 °F 43% 29.99 in 10.0 mi ESE 4.6 mph - N/A   Partly Cloudy
1:53 AM 50.0 °F - 30.2 °F 47% 29.99 in 10.0 mi ESE 5.8 mph - N/A   Partly Cloudy
2:53 AM 46.4 °F 45.2 °F 28.4 °F 50% 29.99 in 10.0 mi ENE 3.5 mph - N/A   Partly Cloudy
3:53 AM 44.6 °F - 30.2 °F 57% 29.97 in 10.0 mi Calm Calm - N/A   Partly Cloudy
4:53 AM 46.4 °F 44.3 °F 30.2 °F 53% 29.96 in 10.0 mi ENE 4.6 mph - N/A   Partly Cloudy
5:53 AM 46.4 °F - 33.8 °F 62% 29.96 in 10.0 mi Calm Calm - N/A   Partly Cloudy
6:53 AM 46.4 °F 45.2 °F 33.8 °F 62% 29.96 in 10.0 mi ENE 3.5 mph - N/A   Partly Cloudy
7:53 AM 46.0 °F - 34.0 °F 63% 29.96 in 10.0 mi Calm Calm - N/A   Partly Cloudy
8:53 AM 53.1 °F - 36.0 °F 52% 29.99 in 10.0 mi NNE 3.5 mph - N/A   Partly Cloudy
9:53 AM 60.1 °F - 33.1 °F 36% 29.99 in 10.0 mi ENE 6.9 mph - N/A   Partly Cloudy
10:53 AM 64.9 °F - 24.1 °F 21% 30.00 in 10.0 mi NNE 12.7 mph - N/A   Partly Cloudy
11:53 AM 68.0 °F - 23.0 °F 18% 29.99 in 10.0 mi NE 17.3 mph - N/A   Partly Cloudy
12:53 PM 69.8 °F - 21.2 °F 16% 29.97 in 10.0 mi ENE 12.7 mph 23.0 mph N/A   Partly Cloudy
1:53 PM 72.0 °F - 21.0 °F 15% 29.94 in 10.0 mi ENE 17.3 mph 25.3 mph N/A   Partly Cloudy
2:53 PM 73.0 °F - 19.9 °F 14% 29.92 in 10.0 mi ENE 20.7 mph 28.8 mph N/A   Partly Cloudy
3:53 PM 73.4 °F - 19.4 °F 13% 29.92 in 10.0 mi NNE 15.0 mph - N/A   Partly Cloudy
4:53 PM 71.6 °F - 21.2 °F 15% 29.92 in 10.0 mi NE 11.5 mph - N/A   Partly Cloudy
5:53 PM 68.0 °F - 19.9 °F 16% 29.91 in 10.0 mi NE 9.2 mph - N/A   Clear
6:53 PM 61.0 °F - 17.1 °F 18% 29.93 in 10.0 mi ENE 5.8 mph - N/A   Clear
8:53 PM 55.0 °F - 17.1 °F 23% 29.95 in 10.0 mi ENE 9.2 mph - N/A   Clear
9:53 PM 55.0 °F - 19.0 °F 24% 29.97 in 10.0 mi NE 3.5 mph - N/A   Clear
10:53 PM 53.1 °F - 24.1 °F 32% 29.99 in 10.0 mi Calm Calm - N/A   Clear
11:53 PM 52.0 °F - 19.9 °F 28% 30.00 in 10.0 mi Calm Calm - N/A   Clear